Time,TemperatureF,DewpointF,PressureIn,WindDirection,WindDirectionDegrees,WindSpeedMPH,WindSpeedGustMPH,Humidity,HourlyPrecipIn,Conditions,Clouds,dailyrainin,SolarRadiationWatts/m^2,SoftwareType,DateUTC
2013-02-11 00:02:00,41.0,19.0,-100.00,SE,144,4.0,13.0,41,0.00,,,0.00,0.000000,,2013-02-11 05:02:00,
2013-02-11 00:12:00,41.0,19.0,-100.00,SE,144,4.0,13.0,41,0.00,,,0.00,0.000000,,2013-02-11 05:12:00,
2013-02-11 00:42:00,41.0,21.0,-100.00,SSE,159,5.0,10.0,45,0.00,,,0.00,0.000000,,2013-02-11 05:42:00,
2013-02-11 00:53:00,41.0,21.0,-100.00,SSE,159,5.0,10.0,45,0.00,,,0.00,0.000000,,2013-02-11 05:53:00,
2013-02-11 01:02:00,41.0,21.0,-100.00,SSE,159,5.0,10.0,45,0.00,,,0.00,0.000000,,2013-02-11 06:02:00,
2013-02-11 01:12:00,41.0,21.0,-100.00,SSE,159,5.0,10.0,45,0.00,,,0.00,0.000000,,2013-02-11 06:12:00,
2013-02-11 01:42:00,40.0,26.0,-100.00,SSE,167,5.0,12.0,56,0.01,,,0.01,0.000000,,2013-02-11 06:42:00,
2013-02-11 01:52:00,40.0,26.0,-100.00,SSE,167,5.0,12.0,56,0.01,,,0.01,0.000000,,2013-02-11 06:52:00,
2013-02-11 02:02:00,40.0,26.0,-100.00,SSE,167,5.0,12.0,56,0.01,,,0.01,0.000000,,2013-02-11 07:02:00,
2013-02-11 02:12:00,40.0,26.0,-100.00,SSE,167,5.0,12.0,56,0.01,,,0.01,0.000000,,2013-02-11 07:12:00,
2013-02-11 02:42:00,37.0,33.0,-100.00,SSE,162,5.0,11.0,86,0.02,,,0.03,0.000000,,2013-02-11 07:42:00,
2013-02-11 02:52:00,37.0,33.0,-100.00,SSE,162,5.0,11.0,86,0.02,,,0.03,0.000000,,2013-02-11 07:52:00,
2013-02-11 03:01:00,37.0,33.0,-100.00,SSE,162,5.0,11.0,86,0.02,,,0.03,0.000000,,2013-02-11 08:01:00,
2013-02-11 03:11:00,37.0,33.0,-100.00,SSE,162,5.0,11.0,86,0.02,,,0.03,0.000000,,2013-02-11 08:11:00,
2013-02-11 03:42:00,37.0,34.0,-100.00,SSE,156,3.0,10.0,89,0.03,,,0.06,0.000000,,2013-02-11 08:42:00,
2013-02-11 03:52:00,37.0,34.0,-100.00,SSE,156,3.0,10.0,89,0.03,,,0.06,0.000000,,2013-02-11 08:52:00,
2013-02-11 04:02:00,37.0,34.0,-100.00,SSE,156,3.0,10.0,89,0.03,,,0.06,0.000000,,2013-02-11 09:02:00,
2013-02-11 04:12:00,37.0,34.0,-100.00,SSE,156,3.0,10.0,89,0.03,,,0.06,0.000000,,2013-02-11 09:12:00,
2013-02-11 04:32:00,37.0,35.0,-100.00,SSE,158,3.0,8.0,93,0.06,,,0.12,0.000000,,2013-02-11 09:32:00,
2013-02-11 04:42:00,37.0,35.0,-100.00,SSE,158,3.0,8.0,93,0.06,,,0.12,0.000000,,2013-02-11 09:42:00,
2013-02-11 04:52:00,37.0,35.0,-100.00,SSE,158,3.0,8.0,93,0.06,,,0.12,0.000000,,2013-02-11 09:52:00,
2013-02-11 05:02:00,37.0,35.0,-100.00,SSE,158,3.0,8.0,93,0.06,,,0.12,0.000000,,2013-02-11 10:02:00,
2013-02-11 05:11:00,37.0,35.0,-100.00,SSE,158,3.0,8.0,93,0.06,,,0.12,0.000000,,2013-02-11 10:11:00,
2013-02-11 05:42:00,38.0,36.0,-100.00,SSE,147,2.0,6.0,93,0.01,,,0.13,0.000000,,2013-02-11 10:42:00,
2013-02-11 05:52:00,38.0,36.0,-100.00,SSE,147,2.0,6.0,93,0.01,,,0.13,0.000000,,2013-02-11 10:52:00,
2013-02-11 06:02:00,38.0,36.0,-100.00,SSE,147,2.0,6.0,93,0.01,,,0.13,0.000000,,2013-02-11 11:02:00,
2013-02-11 06:11:00,38.0,36.0,-100.00,SSE,147,2.0,6.0,93,0.01,,,0.13,0.000000,,2013-02-11 11:11:00,
2013-02-11 06:42:00,39.0,37.0,-100.00,SSE,163,4.0,7.0,93,0.00,,,0.13,0.000000,,2013-02-11 11:42:00,
2013-02-11 06:52:00,39.0,37.0,-100.00,SSE,163,4.0,7.0,93,0.00,,,0.13,0.000000,,2013-02-11 11:52:00,
2013-02-11 07:03:00,39.0,37.0,-100.00,SSE,163,4.0,7.0,93,0.00,,,0.13,0.000000,,2013-02-11 12:03:00,
2013-02-11 07:12:00,39.0,37.0,-100.00,SSE,163,4.0,7.0,93,0.00,,,0.13,0.000000,,2013-02-11 12:12:00,
2013-02-11 07:32:00,40.0,38.0,-100.00,SE,136,3.0,10.0,92,0.00,,,-99.99,0.000000,,2013-02-11 12:32:00,
2013-02-11 07:42:00,40.0,38.0,-100.00,SE,136,3.0,10.0,92,0.00,,,-99.99,0.000000,,2013-02-11 12:42:00,
2013-02-11 07:52:00,40.0,38.0,-100.00,SE,136,3.0,10.0,92,0.00,,,-99.99,0.000000,,2013-02-11 12:52:00,
2013-02-11 08:02:00,40.0,38.0,-100.00,SE,136,3.0,10.0,92,0.00,,,-99.99,0.000000,,2013-02-11 13:02:00,
2013-02-11 08:12:00,40.0,38.0,-100.00,SE,136,3.0,10.0,92,0.00,,,-99.99,0.000000,,2013-02-11 13:12:00,
2013-02-11 08:42:00,41.0,39.0,-100.00,SSE,156,3.0,6.0,92,0.00,,,-99.99,13.000000,,2013-02-11 13:42:00,
2013-02-11 08:52:00,41.0,39.0,-100.00,SSE,156,3.0,6.0,92,0.00,,,-99.99,13.000000,,2013-02-11 13:52:00,
2013-02-11 09:02:00,41.0,39.0,-100.00,SSE,156,3.0,6.0,92,0.00,,,-99.99,13.000000,,2013-02-11 14:02:00,
2013-02-11 09:12:00,41.0,39.0,-100.00,SSE,156,3.0,6.0,92,0.00,,,-99.99,13.000000,,2013-02-11 14:12:00,
2013-02-11 09:42:00,45.0,41.0,-100.00,SE,143,2.0,5.0,87,0.00,,,-99.99,123.000000,,2013-02-11 14:42:00,
2013-02-11 09:53:00,45.0,41.0,-100.00,SE,143,2.0,5.0,87,0.00,,,-99.99,123.000000,,2013-02-11 14:53:00,
2013-02-11 10:02:00,45.0,41.0,-100.00,SE,143,2.0,5.0,87,0.00,,,-99.99,123.000000,,2013-02-11 15:02:00,
2013-02-11 10:12:00,45.0,41.0,-100.00,SE,143,2.0,5.0,87,0.00,,,-99.99,123.000000,,2013-02-11 15:12:00,
2013-02-11 10:42:00,50.0,44.0,-100.00,SSE,148,4.0,7.0,81,0.00,,,0.13,298.000000,,2013-02-11 15:42:00,
2013-02-11 10:52:00,50.0,44.0,-100.00,SSE,148,4.0,7.0,81,0.00,,,0.13,298.000000,,2013-02-11 15:52:00,
2013-02-11 11:32:00,51.0,44.0,-100.00,SE,133,5.0,9.0,77,-99.99,,,0.13,383.000000,,2013-02-11 16:32:00,
2013-02-11 12:02:00,51.0,44.0,-100.00,SE,133,5.0,9.0,77,-99.99,,,0.13,383.000000,,2013-02-11 17:02:00,
2013-02-11 12:12:00,51.0,44.0,-100.00,SE,133,5.0,9.0,77,-99.99,,,0.13,383.000000,,2013-02-11 17:12:00,
2013-02-11 12:42:00,56.0,47.0,-100.00,SSE,157,4.0,9.0,71,0.00,,,0.13,553.000000,,2013-02-11 17:42:00,
2013-02-11 12:53:00,56.0,47.0,-100.00,SSE,157,4.0,9.0,71,0.00,,,0.13,553.000000,,2013-02-11 17:53:00,
2013-02-11 13:11:00,56.0,47.0,-100.00,SSE,157,4.0,9.0,71,0.00,,,0.13,553.000000,,2013-02-11 18:11:00,
2013-02-11 13:42:00,53.0,44.0,-100.00,SE,142,5.0,9.0,72,0.00,,,0.13,391.000000,,2013-02-11 18:42:00,
2013-02-11 13:54:00,53.0,44.0,-100.00,SE,142,5.0,9.0,72,0.00,,,0.13,391.000000,,2013-02-11 18:54:00,
2013-02-11 14:02:00,53.0,44.0,-100.00,SE,142,5.0,9.0,72,0.00,,,0.13,391.000000,,2013-02-11 19:02:00,
2013-02-11 14:12:00,53.0,44.0,-100.00,SE,142,5.0,9.0,72,0.00,,,0.13,391.000000,,2013-02-11 19:12:00,
2013-02-11 15:42:00,59.0,48.0,-100.00,SSE,157,3.0,10.0,67,-99.99,,,0.13,318.000000,,2013-02-11 20:42:00,
2013-02-11 15:52:00,59.0,48.0,-100.00,SSE,157,3.0,10.0,67,-99.99,,,0.13,318.000000,,2013-02-11 20:52:00,
2013-02-11 16:02:00,59.0,48.0,-100.00,SSE,157,3.0,10.0,67,-99.99,,,0.13,318.000000,,2013-02-11 21:02:00,
2013-02-11 16:12:00,59.0,48.0,-100.00,SSE,157,3.0,10.0,67,-99.99,,,0.13,318.000000,,2013-02-11 21:12:00,
2013-02-11 16:32:00,59.0,48.0,-100.00,SE,137,3.0,10.0,66,0.00,,,0.13,148.000000,,2013-02-11 21:32:00,
2013-02-11 16:42:00,59.0,48.0,-100.00,SE,137,3.0,10.0,66,0.00,,,0.13,148.000000,,2013-02-11 21:42:00,
2013-02-11 16:52:00,59.0,48.0,-100.00,SE,137,3.0,10.0,66,0.00,,,0.13,148.000000,,2013-02-11 21:52:00,
2013-02-11 17:02:00,59.0,48.0,-100.00,SE,137,3.0,10.0,66,0.00,,,0.13,148.000000,,2013-02-11 22:02:00,
2013-02-11 17:12:00,59.0,48.0,-100.00,SE,137,3.0,10.0,66,0.00,,,0.13,148.000000,,2013-02-11 22:12:00,
2013-02-11 17:32:00,56.0,47.0,-100.00,SSE,153,2.0,8.0,72,0.00,,,0.13,62.000000,,2013-02-11 22:32:00,
2013-02-11 17:42:00,56.0,47.0,-100.00,SSE,153,2.0,8.0,72,0.00,,,0.13,62.000000,,2013-02-11 22:42:00,
2013-02-11 17:52:00,56.0,47.0,-100.00,SSE,153,2.0,8.0,72,0.00,,,0.13,62.000000,,2013-02-11 22:52:00,
2013-02-11 18:02:00,56.0,47.0,-100.00,SSE,153,2.0,8.0,72,0.00,,,0.13,62.000000,,2013-02-11 23:02:00,
2013-02-11 18:12:00,56.0,47.0,-100.00,SSE,153,2.0,8.0,72,0.00,,,0.13,62.000000,,2013-02-11 23:12:00,
2013-02-11 18:32:00,53.0,46.0,-100.00,NNW,334,1.0,4.0,78,0.00,,,0.13,8.000000,,2013-02-11 23:32:00,
2013-02-11 18:42:00,53.0,46.0,-100.00,NNW,334,1.0,4.0,78,0.00,,,0.13,8.000000,,2013-02-11 23:42:00,
2013-02-11 18:52:00,53.0,46.0,-100.00,NNW,334,1.0,4.0,78,0.00,,,0.13,8.000000,,2013-02-11 23:52:00,
2013-02-11 19:02:00,53.0,46.0,-100.00,NNW,334,1.0,4.0,78,0.00,,,0.13,8.000000,,2013-02-12 00:02:00,
2013-02-11 19:12:00,53.0,46.0,-100.00,NNW,334,1.0,4.0,78,0.00,,,0.13,8.000000,,2013-02-12 00:12:00,
2013-02-11 19:32:00,55.0,45.0,-100.00,West,264,5.0,11.0,68,0.00,,,0.13,0.000000,,2013-02-12 00:32:00,
2013-02-11 20:42:00,59.0,23.0,-100.00,West,266,6.0,15.0,25,0.00,,,-99.99,0.000000,,2013-02-12 01:42:00,
2013-02-11 20:52:00,59.0,23.0,-100.00,West,266,6.0,15.0,25,0.00,,,-99.99,0.000000,,2013-02-12 01:52:00,
2013-02-11 21:02:00,59.0,23.0,-100.00,West,266,6.0,15.0,25,0.00,,,-99.99,0.000000,,2013-02-12 02:02:00,
2013-02-11 21:12:00,59.0,23.0,-100.00,West,266,6.0,15.0,25,0.00,,,-99.99,0.000000,,2013-02-12 02:12:00,
2013-02-11 21:32:00,57.0,22.0,-100.00,West,273,6.0,16.0,25,0.00,,,0.13,0.000000,,2013-02-12 02:32:00,
2013-02-11 21:42:00,57.0,22.0,-100.00,West,273,6.0,16.0,25,0.00,,,0.13,0.000000,,2013-02-12 02:42:00,
2013-02-11 21:53:00,57.0,22.0,-100.00,West,273,6.0,16.0,25,0.00,,,0.13,0.000000,,2013-02-12 02:53:00,
2013-02-11 22:02:00,57.0,22.0,-100.00,West,273,6.0,16.0,25,0.00,,,0.13,0.000000,,2013-02-12 03:02:00,
2013-02-11 22:11:00,57.0,22.0,-100.00,West,273,6.0,16.0,25,0.00,,,0.13,0.000000,,2013-02-12 03:11:00,
2013-02-11 22:32:00,51.0,29.0,-100.00,WNW,295,6.0,16.0,43,0.00,,,0.13,0.000000,,2013-02-12 03:32:00,
2013-02-11 22:42:00,51.0,29.0,-100.00,WNW,295,6.0,16.0,43,0.00,,,0.13,0.000000,,2013-02-12 03:42:00,
2013-02-11 22:52:00,51.0,29.0,-100.00,WNW,295,6.0,16.0,43,0.00,,,0.13,0.000000,,2013-02-12 03:52:00,
2013-02-11 23:01:00,51.0,29.0,-100.00,WNW,295,6.0,16.0,43,0.00,,,0.13,0.000000,,2013-02-12 04:01:00,
2013-02-11 23:11:00,51.0,29.0,-100.00,WNW,295,6.0,16.0,43,0.00,,,0.13,0.000000,,2013-02-12 04:11:00,
2013-02-11 23:32:00,47.0,31.0,-100.00,WNW,297,4.0,14.0,53,0.00,,,0.13,0.000000,,2013-02-12 04:32:00,
2013-02-11 23:42:00,47.0,31.0,-100.00,WNW,297,4.0,14.0,53,0.00,,,0.13,0.000000,,2013-02-12 04:42:00,
2013-02-11 23:52:00,47.0,31.0,-100.00,WNW,297,4.0,14.0,53,0.00,,,0.13,0.000000,,2013-02-12 04:52:00,